Location: Kalispell
(48.1967°N, 114.3128°W)
Time: 20:05:43
(UTC-06:00)

Amateur Radio Satellites - All Passes

Search period start: 27 April 2015 19:35
Search period end: 28 April 2015 19:35
Location: Kalispell, 48.1967°N, 114.3128°W

Satellite Date Start Highest point End Downlink Frequencies (MHz)
Time Altitude Azimuth
MOZHAYETS 4 27 Apr 19:40:55 19:44:36 24° 296° (WNW) 19:48:11
PHONESAT 2.4 27 Apr 19:42:29 19:45:24 23° 176° (S) 19:48:20 2401.200-2431.200
M-CUBED/EXP-1 PRIME 27 Apr 19:44:53 19:48:37 31° 100° (E) 19:52:06 437.505
CUBESAT XI-V 27 Apr 19:45:56 19:50:20 44° 97° (E) 19:54:47 437.345
SO-50 27 Apr 19:52:08 19:56:59 51° 45° (NE) 20:01:49 436.795
CUTE-I 27 Apr 19:59:42 20:04:22 30° 266° (W) 20:09:00 437.470
Cosmos 2499 27 Apr 20:03:41 20:12:33 70° 283° (WNW) 20:21:03 435.465 / 435.565
HO-68 27 Apr 20:04:46 20:11:02 35° 58° (ENE) 20:17:24 435.675
Cubesat XI-IV 27 Apr 20:10:29 20:14:51 25° 268° (W) 20:19:08 437.490
RS-15 27 Apr 20:10:36 20:20:30 34° 5° (N) 20:30:50 29.354- 29.394
SEEDS 27 Apr 20:11:41 20:13:55 14° 60° (ENE) 20:16:19 437.485
CUSAT 1 27 Apr 20:16:20 20:17:46 11° 314° (NW) 20:19:03 437.405
CANX-2 27 Apr 20:22:46 20:26:07 23° 65° (ENE) 20:29:32 2200.000
AAUSAT CUBESAT 2 27 Apr 20:23:27 20:25:27 13° 60° (ENE) 20:27:37 437.432
AUBIESAT-1 27 Apr 20:24:51 20:29:03 72° 108° (ESE) 20:32:52 437.475
GOMX 1 27 Apr 20:26:45 20:30:28 30° 66° (ENE) 20:34:27 467.674
VERMONT LUNAR 27 Apr 20:28:56 20:31:12 17° 195° (SSW) 20:33:27 437.305
CUTE 1.7 + AOD 2 27 Apr 20:31:22 20:34:51 25° 65° (ENE) 20:38:25 437.475
YUBILEINY 27 Apr 20:47:21 20:53:37 22° 54° (NE) 21:00:09 435.215
STRAND 1 27 Apr 20:47:31 20:52:40 77° 105° (ESE) 20:57:46 437.568
BRITE-PL 27 Apr 20:50:41 20:54:51 75° 74° (ENE) 20:59:17 437.365/2234.400
DOVE 4 27 Apr 20:51:45 20:55:43 35° 67° (ENE) 20:59:55 437.250
PRISM 27 Apr 20:55:53 20:59:57 61° 288° (WNW) 21:03:59 437.425
CUBEBUG 2 27 Apr 21:03:48 21:06:29 16° 59° (ENE) 21:09:21 437.445
GONETS M04 27 Apr 21:05:35 21:06:38 10° 322° (NW) 21:07:10
COMPASS 1 27 Apr 21:15:54 21:19:58 46° 71° (ENE) 21:24:04 437.405
DELFI C3 27 Apr 21:18:11 21:20:48 17° 63° (ENE) 21:23:31 145.870
CINEMA 3 27 Apr 21:18:41 21:22:44 35° 67° (ENE) 21:26:59 145.822/145.860
M-CUBED/EXP-1 PRIME 27 Apr 21:19:43 21:23:28 30° 301° (WNW) 21:26:54 437.505
PHONESAT 2.4 27 Apr 21:20:23 21:23:02 19° 193° (SSW) 21:25:40 2401.200-2431.200
CUBESAT XI-V 27 Apr 21:23:51 21:27:35 25° 296° (WNW) 21:31:17 437.345
UWE-3 27 Apr 21:24:19 21:27:31 20° 62° (ENE) 21:30:55 435.000/436.395/437.385
FUNcube-1 27 Apr 21:27:54 21:30:48 18° 61° (ENE) 21:33:52 145.935
UKube-1 27 Apr 21:30:50 21:32:32 12° 58° (ENE) 21:34:24 .
HUMSAT D 27 Apr 21:32:59 21:33:22 10° 57° (ENE) 21:33:57 437.325/437.525
SO-50 27 Apr 21:33:03 21:37:22 29° 243° (WSW) 21:41:33 436.795
SEEDS 27 Apr 21:44:56 21:49:13 75° 258° (WSW) 21:53:32 437.485
Oscar 11 27 Apr 21:46:41 21:50:47 42° 70° (ENE) 21:54:56 145.826/435.025
HO-68 27 Apr 21:51:22 21:58:28 60° 258° (WSW) 22:05:37 435.675
ZACube-1 27 Apr 21:53:12 21:57:00 29° 66° (ENE) 22:00:56 437.345
AAUSAT CUBESAT 2 27 Apr 21:56:19 22:00:33 79° 257° (WSW) 22:04:49 437.432
50 SAT 27 Apr 21:56:36 21:57:02 10° 58° (ENE) 21:57:39 437.505
CANX-2 27 Apr 21:57:42 22:01:49 43° 262° (W) 22:05:58 2200.000
AUBIESAT-1 27 Apr 22:00:46 22:03:17 15° 308° (NW) 22:05:36 437.475
Cosmos 2499 27 Apr 22:01:34 22:07:32 19° 307° (NW) 22:13:00 435.465 / 435.565
GOMX 1 27 Apr 22:04:47 22:08:37 31° 266° (W) 22:12:38 467.674
CUTE 1.7 + AOD 2 27 Apr 22:06:35 22:10:37 38° 263° (W) 22:14:40 437.475
VELOX 1 27 Apr 22:07:02 22:09:21 15° 59° (ENE) 22:11:50 145.980
DX 1 27 Apr 22:24:29 22:28:29 38° 68° (ENE) 22:32:33 434.975-435.025
AISAT 27 Apr 22:24:46 22:28:02 21° 63° (ENE) 22:31:25 437.250
RS-15 27 Apr 22:24:50 22:35:57 55° 36° (NE) 22:47:37 29.354- 29.394
STRAND 1 27 Apr 22:27:51 22:31:20 18° 302° (WNW) 22:34:41 437.568
DOVE 4 27 Apr 22:29:52 22:33:36 27° 268° (W) 22:37:28 437.250
BRITE-PL 27 Apr 22:32:26 22:34:10 12° 276° (W) 22:35:44 437.365/2234.400
CUBEBUG 2 27 Apr 22:38:12 22:42:38 73° 259° (W) 22:47:16 437.445
Cosmos 2491 27 Apr 22:38:47 22:46:24 37° 85° (E) 22:54:13 435.465 / 435.565
YUBILEINY 27 Apr 22:43:19 22:52:09 82° 80° (E) 23:00:53 435.215
DELFI C3 27 Apr 22:51:34 22:55:35 55° 260° (W) 22:59:36 145.870
COMPASS 1 27 Apr 22:52:44 22:55:55 20° 270° (W) 22:59:00 437.405
CINEMA 3 27 Apr 22:56:09 23:00:01 28° 267° (W) 23:04:00 145.822/145.860
O/OREOS (USA 219) 27 Apr 22:58:54 23:03:25 62° 112° (ESE) 23:07:56 437.305
UWE-3 27 Apr 22:59:22 23:03:42 54° 260° (W) 23:08:12 435.000/436.395/437.385
FUNcube-1 27 Apr 23:02:21 23:06:42 63° 259° (W) 23:11:12 145.935
UKube-1 27 Apr 23:03:44 23:08:04 88° 78° (ENE) 23:12:25 .
HUMSAT D 27 Apr 23:04:08 23:08:23 73° 75° (ENE) 23:12:43 437.325/437.525
ESTCUBE 1 27 Apr 23:11:22 23:15:20 32° 67° (ENE) 23:19:23 437.505/2401.250
SPROUT 27 Apr 23:18:04 23:18:54 11° 57° (ENE) 23:19:55 437.525
Oscar 11 27 Apr 23:23:41 23:27:10 22° 268° (W) 23:30:36 145.826/435.025
TIGRISAT 27 Apr 23:26:52 23:30:34 23° 91° (E) 23:34:20 435.000
50 SAT 27 Apr 23:27:09 23:31:11 81° 75° (ENE) 23:35:15 437.505
ZACube-1 27 Apr 23:29:16 23:33:18 34° 265° (W) 23:37:24 437.345
UNISAT 6 27 Apr 23:32:09 23:36:05 26° 92° (E) 23:40:04 437.425
DUCHIFAT 1 27 Apr 23:33:33 23:35:13 12° 86° (E) 23:37:07 145.980
POLYITAN 1 27 Apr 23:35:16 23:37:22 14° 87° (E) 23:39:40 437.675
CUBEBUG 1 27 Apr 23:39:20 23:43:30 51° 71° (ENE) 23:47:44 437.445
VELOX 1 27 Apr 23:40:59 23:45:23 78° 256° (WSW) 23:49:49 145.980
Cosmos 2504 27 Apr 23:45:32 23:51:51 25° 58° (ENE) 23:58:01 435.465 / 435.565
HO-68 27 Apr 23:45:44 23:47:59 11° 280° (W) 23:49:41 435.675
QB50P1 27 Apr 23:51:35 23:54:41 19° 91° (E) 23:57:51 145.935-145.965
AISAT 28 Apr 00:00:05 00:04:21 49° 261° (W) 00:08:40 437.250
DX 1 28 Apr 00:01:19 00:04:53 24° 267° (W) 00:08:25 434.975-435.025
TISAT 1 28 Apr 00:10:47 00:14:15 26° 65° (ENE) 00:17:47 437.305
ANTELSAT 28 Apr 00:13:52 00:18:35 64° 101° (E) 00:23:12 437.575/2403.000
QB50P2 28 Apr 00:18:01 00:21:59 35° 96° (E) 00:25:58 145.880/145.840
SWISSCUBE 28 Apr 00:25:58 00:26:20 10° 54° (NE) 00:26:56 437.505
NANOSAT C BR1 28 Apr 00:34:14 00:38:26 50° 99° (E) 00:42:37 145.865
Cosmos 2491 28 Apr 00:34:20 00:42:57 59° 287° (WNW) 00:51:38 435.465 / 435.565
RS-15 28 Apr 00:37:34 00:48:50 62° 242° (WSW) 01:00:30 29.354- 29.394
POPSAT HIP 1 28 Apr 00:38:34 00:42:49 56° 100° (E) 00:47:04 437.405
O/OREOS (USA 219) 28 Apr 00:39:46 00:43:17 21° 312° (NW) 00:46:43 437.305
YUBILEINY 28 Apr 00:41:19 00:48:04 25° 281° (W) 00:54:31 435.215
HUMSAT D 28 Apr 00:42:41 00:44:45 13° 274° (W) 00:46:38 437.325/437.525
UKube-1 28 Apr 00:43:54 00:44:57 11° 274° (W) 00:45:45 .
ESTCUBE 1 28 Apr 00:48:11 00:52:13 31° 265° (W) 00:56:14 437.505/2401.250
BUGSAT 1 28 Apr 00:49:50 00:53:54 51° 100° (E) 00:58:01 437.445
SPROUT 28 Apr 00:50:01 00:54:17 77° 75° (ENE) 00:58:36 437.525
TIGRISAT 28 Apr 01:03:02 01:07:35 47° 290° (WNW) 01:12:03 435.000
50 SAT 28 Apr 01:05:48 01:06:38 10° 275° (W) 01:07:15 437.505
DUCHIFAT 1 28 Apr 01:07:22 01:11:40 77° 286° (WNW) 01:15:56 145.980
UNISAT 6 28 Apr 01:08:35 01:13:02 41° 291° (WNW) 01:17:24 437.425
POLYITAN 1 28 Apr 01:09:31 01:13:51 70° 285° (WNW) 01:18:09 437.675
CUBEBUG 1 28 Apr 01:17:08 01:20:13 18° 270° (W) 01:23:11 437.445
QB50P1 28 Apr 01:26:41 01:30:50 48° 289° (WNW) 01:34:58 145.935-145.965
ITUPSAT 1 28 Apr 01:27:12 01:31:19 30° 65° (ENE) 01:35:31 437.325
AIST 1 28 Apr 01:37:26 01:41:44 87° 279° (W) 01:46:02
Cosmos 2504 28 Apr 01:38:20 01:46:28 81° 263° (W) 01:53:57 435.465 / 435.565
TISAT 1 28 Apr 01:46:04 01:49:55 35° 264° (W) 01:53:48 437.305
ANTELSAT 28 Apr 01:51:35 01:54:56 19° 299° (WNW) 01:58:08 437.575/2403.000
QB50P2 28 Apr 01:54:08 01:57:47 27° 294° (WNW) 02:01:22 145.880/145.840
BEESAT 28 Apr 01:55:44 02:00:22 54° 71° (ENE) 02:05:04 436.000
SWISSCUBE 28 Apr 01:58:38 02:03:20 61° 72° (ENE) 02:08:05 437.505
NANOSAT C BR1 28 Apr 02:10:48 02:13:59 20° 297° (WNW) 02:17:03 145.865
POPSAT HIP 1 28 Apr 02:15:20 02:18:21 18° 298° (WNW) 02:21:16 437.405
BEESAT 3 28 Apr 02:20:31 02:23:01 16° 113° (ESE) 02:25:38 437.485
BEESAT 2 28 Apr 02:25:28 02:27:49 15° 112° (ESE) 02:30:18 435.950
BUGSAT 1 28 Apr 02:26:07 02:29:05 19° 297° (WNW) 02:31:57 437.445
SPROUT 28 Apr 02:29:13 02:31:01 12° 274° (W) 02:32:38 437.525
DANDE 28 Apr 02:33:41 02:36:55 13° 50° (NE) 02:40:47 436.750
Cosmos 2491 28 Apr 02:37:20 02:42:19 15° 313° (NW) 02:46:54 435.465 / 435.565
Oscar 19 28 Apr 02:41:59 02:46:50 39° 96° (E) 02:51:43 437.125/150
DUCHIFAT 1 28 Apr 02:45:49 02:46:48 11° 303° (WNW) 02:47:35 145.980
KKS-1 28 Apr 02:46:16 02:50:15 34° 67° (ENE) 02:54:18 437.445
RS-15 28 Apr 02:52:49 02:59:11 16° 263° (W) 03:04:45 29.354- 29.394
ITUPSAT 1 28 Apr 03:04:40 03:09:09 38° 263° (W) 03:13:37 437.325
GONETS M04 28 Apr 03:06:16 03:14:04 34° 63° (ENE) 03:21:59
CUSAT 1 28 Apr 03:18:19 03:24:41 30° 62° (ENE) 03:31:49 437.405
AIST 1 28 Apr 03:19:09 03:20:11 11° 300° (WNW) 03:21:00
ITAMSAT 1 28 Apr 03:22:41 03:27:08 29° 94° (E) 03:31:40 435.822/435.867
Cosmos 2504 28 Apr 03:33:38 03:38:34 17° 285° (WNW) 03:42:58 435.465 / 435.565
STARS 28 Apr 03:34:01 03:38:21 64° 73° (ENE) 03:42:45 437.465
BEESAT 28 Apr 03:34:57 03:38:36 21° 269° (W) 03:42:08 436.000
MOZHAYETS 4 28 Apr 03:35:56 03:36:33 10° 55° (NE) 03:37:22
SWISSCUBE 28 Apr 03:38:19 03:41:40 18° 271° (W) 03:44:53 437.505
AIST 2 28 Apr 03:40:48 03:44:26 28° 117° (ESE) 03:48:10 435.215
BEESAT 3 28 Apr 03:56:30 04:00:35 67° 310° (NW) 04:04:44 437.485
Cosmos 2499 28 Apr 04:00:23 04:03:31 13° 45° (NE) 04:06:59 435.465 / 435.565
BEESAT 2 28 Apr 04:01:19 04:05:27 72° 310° (NW) 04:09:38 435.950
Gurwin Techsat 1B 28 Apr 04:07:34 04:12:51 63° 101° (E) 04:18:08 435.225
DANDE 28 Apr 04:14:42 04:21:53 51° 71° (ENE) 04:30:09 436.750
Oscar 19 28 Apr 04:21:29 04:26:09 34° 295° (WNW) 04:30:45 437.125/150
KKS-1 28 Apr 04:23:02 04:26:56 29° 265° (W) 04:30:49 437.445
AO-7 28 Apr 04:51:47 04:58:57 32° 93° (E) 05:06:15 29.400- 29.500
HORYU 2 28 Apr 04:55:25 04:59:38 38° 97° (E) 05:03:49 437.375
CUSAT 1 28 Apr 05:00:30 05:08:07 78° 261° (W) 05:16:28 437.405
ITAMSAT 1 28 Apr 05:01:56 05:06:50 43° 293° (WNW) 05:11:42 435.822/435.867
GONETS M04 28 Apr 05:02:55 05:11:41 66° 266° (W) 05:20:21
M-CUBED/EXP-1 PRIME 28 Apr 05:03:27 05:05:58 15° 52° (NE) 05:08:36 437.505
MOZHAYETS 4 28 Apr 05:08:22 05:12:59 66° 73° (ENE) 05:17:36
STARS 28 Apr 05:12:37 05:15:19 15° 272° (W) 05:17:53 437.465
JAS-2 28 Apr 05:17:49 05:23:53 45° 95° (E) 05:29:18 435.910
AIST 2 28 Apr 05:18:48 05:22:54 43° 316° (NW) 05:27:01 435.215
BEESAT 3 28 Apr 05:36:47 05:39:23 16° 332° (NNW) 05:41:55 437.485
BEESAT 2 28 Apr 05:41:35 05:44:19 16° 332° (NNW) 05:46:59 435.950
AUBIESAT-1 28 Apr 05:41:35 05:45:27 25° 58° (ENE) 05:49:20 437.475
Gurwin Techsat 1B 28 Apr 05:48:19 05:52:27 23° 300° (WNW) 05:56:29 435.225
Cosmos 2499 28 Apr 05:51:25 05:59:07 55° 73° (ENE) 06:06:16 435.465 / 435.565
DANDE 28 Apr 05:58:06 06:05:10 44° 268° (W) 06:13:02 436.750
PRISM 28 Apr 06:15:26 06:18:19 19° 63° (ENE) 06:21:17 437.425
STRAND 1 28 Apr 06:29:17 06:33:21 25° 62° (ENE) 06:37:31 437.568
HORYU 2 28 Apr 06:32:19 06:36:09 27° 295° (WNW) 06:39:54 437.375
CUTE-I 28 Apr 06:34:17 06:36:20 12° 84° (E) 06:38:42 437.470
M-CUBED/EXP-1 PRIME 28 Apr 06:35:18 06:40:09 78° 70° (ENE) 06:44:58 437.505
Cubesat XI-IV 28 Apr 06:44:01 06:47:03 16° 87° (E) 06:50:19 437.490
AO-7 28 Apr 06:44:10 06:52:26 69° 294° (WNW) 07:00:41 29.400- 29.500
CUSAT 1 28 Apr 06:44:46 06:50:05 20° 277° (W) 06:55:19 437.405
MOZHAYETS 4 28 Apr 06:47:46 06:50:44 16° 272° (W) 06:53:32
CUBESAT XI-V 28 Apr 06:52:42 06:57:17 65° 73° (ENE) 07:01:52 437.345
AIST 2 28 Apr 07:00:32 07:02:35 13° 338° (NNW) 07:04:35 435.215
GONETS M04 28 Apr 07:02:20 07:06:55 15° 288° (WNW) 07:10:58
JAS-2 28 Apr 07:03:06 07:08:53 35° 298° (WNW) 07:14:00 435.910
AUBIESAT-1 28 Apr 07:15:16 07:19:58 52° 255° (WSW) 07:24:37 437.475
O/OREOS (USA 219) 28 Apr 07:26:22 07:30:21 30° 53° (NE) 07:34:20 437.305
Cosmos 2499 28 Apr 07:45:07 07:51:56 33° 276° (W) 07:58:12 435.465 / 435.565
PRISM 28 Apr 07:49:25 07:53:28 50° 260° (W) 07:57:32 437.425
PCSat 28 Apr 07:56:01 08:00:02 22° 109° (ESE) 08:04:12 145.827
STRAND 1 28 Apr 08:07:18 08:12:18 53° 260° (W) 08:17:18 437.568
CUTE-I 28 Apr 08:12:01 08:17:23 82° 103° (ESE) 08:22:44 437.470
M-CUBED/EXP-1 PRIME 28 Apr 08:12:31 08:15:32 16° 267° (W) 08:18:22 437.505
Cubesat XI-IV 28 Apr 08:22:34 08:27:55 82° 288° (WNW) 08:33:16 437.490
CUBESAT XI-V 28 Apr 08:32:16 08:35:14 16° 272° (W) 08:38:02 437.345
AO-7 28 Apr 08:38:07 08:43:57 21° 316° (NW) 08:49:35 29.400- 29.500
Cosmos 2491 28 Apr 08:43:45 08:50:21 23° 55° (NE) 08:57:13 435.465 / 435.565
BRITE-PL 28 Apr 08:51:16 08:55:09 22° 90° (E) 08:59:21 437.365/2234.400
BEESAT 3 28 Apr 08:57:47 08:59:01 11° 19° (NNE) 09:00:19 437.485
BEESAT 2 28 Apr 09:02:58 09:04:08 11° 19° (NNE) 09:05:23 435.950
O/OREOS (USA 219) 28 Apr 09:05:41 09:09:51 36° 252° (WSW) 09:13:55 437.305
HO-68 28 Apr 09:15:42 09:21:07 23° 89° (E) 09:26:43 435.675
SEEDS 28 Apr 09:27:09 09:29:28 15° 87° (E) 09:31:56 437.485
AAUSAT CUBESAT 2 28 Apr 09:37:28 09:39:23 13° 87° (E) 09:41:29 437.432
PCSat 28 Apr 09:37:36 09:43:01 68° 307° (NW) 09:48:28 145.827
CANX-2 28 Apr 09:39:40 09:43:14 25° 93° (E) 09:46:49 2200.000
ANTELSAT 28 Apr 09:42:30 09:44:36 13° 57° (ENE) 09:46:55 437.575/2403.000
CUTE 1.7 + AOD 2 28 Apr 09:48:15 09:51:57 28° 94° (E) 09:55:40 437.475
CUTE-I 28 Apr 09:53:18 09:56:54 18° 303° (WNW) 10:00:20 437.470
YUBILEINY 28 Apr 09:55:38 10:01:14 20° 76° (ENE) 10:07:12 435.215
GOMX 1 28 Apr 10:01:17 10:06:23 57° 99° (E) 10:11:44 467.674
Cubesat XI-IV 28 Apr 10:04:15 10:07:19 15° 305° (NW) 10:10:12 437.490
AIST 2 28 Apr 10:20:55 10:23:27 15° 26° (NNE) 10:26:02 435.215
DOVE 4 28 Apr 10:23:36 10:28:43 63° 100° (E) 10:33:59 437.250
CUBEBUG 2 28 Apr 10:26:20 10:29:53 21° 90° (E) 10:33:31 437.445
DELFI C3 28 Apr 10:28:30 10:30:58 16° 89° (E) 10:33:32 145.870
TIGRISAT 28 Apr 10:28:57 10:32:58 31° 66° (ENE) 10:37:06 435.000
BRITE-PL 28 Apr 10:28:59 10:34:02 61° 287° (WNW) 10:39:25 437.365/2234.400
DUCHIFAT 1 28 Apr 10:29:26 10:31:56 16° 61° (ENE) 10:34:36 145.980
COMPASS 1 28 Apr 10:31:17 10:35:26 53° 99° (E) 10:39:31 437.405
POLYITAN 1 28 Apr 10:31:51 10:34:38 18° 62° (ENE) 10:37:32 437.675
BEESAT 3 28 Apr 10:34:24 10:38:13 35° 42° (NE) 10:42:00 437.485
UNISAT 6 28 Apr 10:34:26 10:38:36 36° 67° (ENE) 10:42:54 437.425
BEESAT 2 28 Apr 10:39:40 10:43:28 34° 41° (NE) 10:47:15 435.950
Cosmos 2491 28 Apr 10:39:52 10:48:47 86° 82° (E) 10:57:39 435.465 / 435.565
UWE-3 28 Apr 10:45:57 10:49:51 26° 92° (E) 10:53:46 435.000/436.395/437.385
CINEMA 3 28 Apr 10:46:13 10:51:08 55° 99° (E) 10:56:06 145.822/145.860
FUNcube-1 28 Apr 10:47:47 10:51:14 21° 90° (E) 10:54:47 145.935
QB50P1 28 Apr 10:47:56 10:51:17 24° 65° (ENE) 10:54:43 145.935-145.965
UKube-1 28 Apr 10:49:53 10:51:13 11° 86° (E) 10:52:47 .
SEEDS 28 Apr 11:01:32 11:05:45 62° 287° (WNW) 11:09:55 437.485
HO-68 28 Apr 11:02:29 11:09:43 79° 290° (WNW) 11:16:53 435.675
Oscar 11 28 Apr 11:06:15 11:10:31 51° 99° (E) 11:14:45 145.826/435.025
AAUSAT CUBESAT 2 28 Apr 11:11:22 11:15:34 68° 286° (WNW) 11:19:41 437.432
ZACube-1 28 Apr 11:13:53 11:18:12 37° 96° (E) 11:22:28 437.345
QB50P2 28 Apr 11:14:22 11:18:21 42° 70° (ENE) 11:22:25 145.880/145.840
CANX-2 28 Apr 11:15:19 11:19:16 36° 291° (WNW) 11:23:09 2200.000
ANTELSAT 28 Apr 11:16:06 11:20:42 85° 72° (ENE) 11:25:25 437.575/2403.000
PCSat 28 Apr 11:23:36 11:27:29 19° 330° (NNW) 11:31:18 145.827
CUTE 1.7 + AOD 2 28 Apr 11:24:03 11:27:55 32° 292° (WNW) 11:31:42 437.475
VELOX 1 28 Apr 11:29:04 11:31:41 16° 89° (E) 11:34:27 145.980
NANOSAT C BR1 28 Apr 11:30:10 11:34:18 60° 72° (ENE) 11:38:30 145.865
POPSAT HIP 1 28 Apr 11:34:44 11:38:55 67° 73° (ENE) 11:43:09 437.405
GOMX 1 28 Apr 11:40:04 11:44:13 25° 296° (WNW) 11:48:25 467.674
AIST 1 28 Apr 11:40:59 11:44:51 33° 72° (ENE) 11:48:45
BUGSAT 1 28 Apr 11:43:23 11:47:19 57° 73° (ENE) 11:51:20 437.445
DX 1 28 Apr 11:45:02 11:49:12 43° 99° (E) 11:53:23 434.975-435.025
AISAT 28 Apr 11:47:28 11:51:05 24° 93° (E) 11:54:46 437.250
YUBILEINY 28 Apr 11:48:01 11:56:51 83° 97° (E) 12:05:42 435.215
SO-50 28 Apr 11:50:11 11:54:34 41° 120° (ESE) 11:59:08 436.795
ISS 28 Apr 11:50:36 11:53:09 22° 141° (SE) 11:55:45 145.825
AIST 2 28 Apr 11:58:41 12:02:56 59° 48° (NE) 12:07:05 435.215
DOVE 4 28 Apr 12:02:09 12:06:06 22° 297° (WNW) 12:10:02 437.250
CUBEBUG 2 28 Apr 12:02:15 12:06:55 54° 288° (WNW) 12:11:34 437.445
DELFI C3 28 Apr 12:02:30 12:06:28 52° 288° (WNW) 12:10:23 145.870
DUCHIFAT 1 28 Apr 12:03:09 12:07:19 64° 258° (WSW) 12:11:33 145.980
TIGRISAT 28 Apr 12:05:28 12:09:39 34° 265° (W) 12:13:55 435.000
POLYITAN 1 28 Apr 12:05:59 12:10:10 58° 259° (W) 12:14:23 437.675
COMPASS 1 28 Apr 12:07:48 12:10:47 18° 297° (WNW) 12:13:37 437.405
BRITE-PL 28 Apr 12:10:14 12:11:47 11° 304° (NW) 12:13:06 437.365/2234.400
UNISAT 6 28 Apr 12:11:23 12:15:26 30° 266° (W) 12:19:33 437.425
BEESAT 3 28 Apr 12:12:29 12:16:12 33° 241° (WSW) 12:19:50 437.485
BEESAT 2 28 Apr 12:17:49 12:21:36 35° 241° (WSW) 12:25:18 435.950
HUMSAT D 28 Apr 12:20:19 12:24:43 85° 103° (ESE) 12:29:02 437.325/437.525
UWE-3 28 Apr 12:22:06 12:26:33 42° 291° (WNW) 12:30:57 435.000/436.395/437.385
QB50P1 28 Apr 12:23:00 12:26:59 39° 263° (W) 12:30:59 145.935-145.965
FUNcube-1 28 Apr 12:23:24 12:27:53 49° 289° (WNW) 12:32:17 145.935
UKube-1 28 Apr 12:23:41 12:28:03 83° 286° (WNW) 12:32:23 .
CINEMA 3 28 Apr 12:24:02 12:28:01 24° 297° (WNW) 12:31:55 145.822/145.860
Oscar 19 28 Apr 12:26:17 12:28:52 14° 55° (NE) 12:31:38 437.125/150
Cosmos 2504 28 Apr 12:29:59 12:35:25 19° 77° (ENE) 12:41:10 435.465 / 435.565
50 SAT 28 Apr 12:35:24 12:39:29 79° 103° (ESE) 12:43:30 437.505
SPROUT 28 Apr 12:35:38 12:36:34 11° 85° (E) 12:37:44 437.525
ESTCUBE 1 28 Apr 12:36:41 12:40:56 41° 98° (E) 12:45:11 437.505/2401.250
Cosmos 2491 28 Apr 12:38:00 12:44:40 24° 281° (WNW) 12:51:00 435.465 / 435.565
Oscar 11 28 Apr 12:43:11 12:46:23 20° 297° (WNW) 12:49:29 145.826/435.025
ZACube-1 28 Apr 12:50:27 12:54:27 29° 294° (WNW) 12:58:21 437.345
QB50P2 28 Apr 12:51:12 12:54:29 21° 269° (W) 12:57:43 145.880/145.840
HO-68 28 Apr 12:51:24 12:56:31 21° 310° (NW) 13:01:24 435.675
ANTELSAT 28 Apr 12:56:11 12:58:15 12° 275° (W) 13:00:06 437.575/2403.000
RS-15 28 Apr 13:00:07 13:05:07 15° 97° (E) 13:10:58 29.354- 29.394
CUBEBUG 1 28 Apr 13:00:35 13:04:56 63° 101° (ESE) 13:09:17 437.445
VELOX 1 28 Apr 13:04:19 13:08:44 64° 288° (WNW) 13:13:08 145.980
NANOSAT C BR1 28 Apr 13:08:03 13:10:36 15° 272° (W) 13:13:03 145.865
ITAMSAT 1 28 Apr 13:08:57 13:10:33 12° 53° (NE) 13:12:24 435.822/435.867
PCSat 28 Apr 13:12:27 13:13:10 10° 356° (N) 13:13:54 145.827
POPSAT HIP 1 28 Apr 13:13:05 13:15:20 14° 273° (W) 13:17:26 437.405
AIST 1 28 Apr 13:18:51 13:22:25 25° 271° (W) 13:25:56
BUGSAT 1 28 Apr 13:20:55 13:23:15 14° 271° (W) 13:25:26 437.445
DX 1 28 Apr 13:21:44 13:25:14 23° 296° (WNW) 13:28:40 434.975-435.025
AISAT 28 Apr 13:23:38 13:27:51 41° 291° (WNW) 13:32:02 437.250
ISS 28 Apr 13:25:58 13:29:14 81° 338° (NNW) 13:32:31 145.825
TISAT 1 28 Apr 13:26:52 13:30:31 27° 94° (E) 13:34:13 437.305
SO-50 28 Apr 13:30:45 13:35:11 37° 320° (NW) 13:39:45 436.795
AIST 2 28 Apr 13:38:05 13:41:09 19° 246° (WSW) 13:44:04 435.215
YUBILEINY 28 Apr 13:47:36 13:54:54 27° 302° (WNW) 14:01:59 435.215
Gurwin Techsat 1B 28 Apr 13:54:05 13:58:09 23° 60° (ENE) 14:02:20 435.225
BEESAT 28 Apr 13:55:39 13:55:54 10° 84° (E) 13:56:27 436.000
SWISSCUBE 28 Apr 13:57:28 13:59:06 12° 85° (E) 14:00:59 437.505
HUMSAT D 28 Apr 13:57:45 13:59:53 13° 301° (WNW) 14:01:51 437.325/437.525
UKube-1 28 Apr 14:01:54 14:03:33 12° 303° (WNW) 14:05:00 .
Oscar 19 28 Apr 14:02:18 14:07:28 79° 72° (ENE) 14:12:42 437.125/150
AO-7 28 Apr 14:06:15 14:11:14 18° 40° (NE) 14:16:30 29.400- 29.500
SPROUT 28 Apr 14:09:01 14:13:23 88° 288° (WNW) 14:17:43 437.525
50 SAT 28 Apr 14:11:53 14:13:44 13° 300° (WNW) 14:15:27 437.505
ESTCUBE 1 28 Apr 14:13:56 14:17:39 25° 295° (WNW) 14:21:16 437.505/2401.250
Cosmos 2504 28 Apr 14:18:47 14:27:39 78° 96° (E) 14:36:19 435.465 / 435.565
CUBEBUG 1 28 Apr 14:38:00 14:40:53 17° 299° (WNW) 14:43:40 437.445
ITAMSAT 1 28 Apr 14:44:05 14:49:10 63° 71° (ENE) 14:54:19 435.822/435.867
PCSat 28 Apr 14:56:07 14:59:04 15° 22° (NNE) 15:02:07 145.827
ITUPSAT 1 28 Apr 15:01:15 15:05:47 42° 98° (E) 15:10:18 437.325
TISAT 1 28 Apr 15:02:30 15:06:21 33° 292° (WNW) 15:10:09 437.305
ISS 28 Apr 15:02:41 15:05:51 43° 359° (N) 15:08:59 145.825
RS-15 28 Apr 15:04:42 15:15:18 64° 119° (ESE) 15:26:17 29.354- 29.394
SO-50 28 Apr 15:14:25 15:17:07 14° 344° (NNW) 15:19:47 436.795
BEESAT 28 Apr 15:29:53 15:34:41 79° 104° (ESE) 15:39:26 436.000
JAS-2 28 Apr 15:32:00 15:38:55 37° 63° (ENE) 15:45:32 435.910
Gurwin Techsat 1B 28 Apr 15:32:30 15:37:46 61° 259° (WSW) 15:43:03 435.225
SWISSCUBE 28 Apr 15:32:58 15:37:46 89° 114° (ESE) 15:42:31 437.505
Oscar 19 28 Apr 15:44:21 15:47:33 16° 273° (W) 15:50:33 437.125/150
SPROUT 28 Apr 15:47:03 15:48:51 12° 302° (WNW) 15:50:29 437.525
AO-7 28 Apr 15:54:29 16:02:30 59° 63° (ENE) 16:10:38 29.400- 29.500
HORYU 2 28 Apr 15:56:59 16:01:22 55° 71° (ENE) 16:05:49 437.375
KKS-1 28 Apr 16:09:49 16:14:05 41° 98° (E) 16:18:21 437.445
GONETS M04 28 Apr 16:12:51 16:20:12 33° 83° (E) 16:27:48
Cosmos 2504 28 Apr 16:14:29 16:22:04 29° 299° (WNW) 16:29:15 435.465 / 435.565
VERMONT LUNAR 28 Apr 16:24:36 16:25:41 11° 158° (SSE) 16:26:51 437.305
ITAMSAT 1 28 Apr 16:25:22 16:29:11 20° 270° (W) 16:32:53 435.822/435.867
CUSAT 1 28 Apr 16:34:13 16:35:53 12° 77° (ENE) 16:37:57 437.405
PCSat 28 Apr 16:38:47 16:43:59 43° 46° (NE) 16:49:09 145.827
ISS 28 Apr 16:39:12 16:42:28 70° 18° (NNE) 16:45:44 145.825
ITUPSAT 1 28 Apr 16:39:30 16:43:32 27° 296° (WNW) 16:47:30 437.325
STARS 28 Apr 16:56:24 17:00:53 77° 103° (ESE) 17:05:20 437.465
SO-50 28 Apr 16:57:41 16:59:41 12° 8° (N) 17:01:45 436.795
MOZHAYETS 4 28 Apr 17:01:54 17:03:38 12° 85° (E) 17:05:35
BEESAT 28 Apr 17:09:00 17:12:00 16° 302° (WNW) 17:14:49 436.000
SWISSCUBE 28 Apr 17:12:23 17:15:01 14° 303° (WNW) 17:17:28 437.505
JAS-2 28 Apr 17:15:57 17:23:42 60° 261° (W) 17:31:02 435.910
RS-15 28 Apr 17:17:32 17:28:11 52° 326° (NW) 17:39:11 29.354- 29.394
PHONESAT 2.4 28 Apr 17:25:32 17:27:04 12° 158° (SSE) 17:28:40 2401.200-2431.200
DANDE 28 Apr 17:32:52 17:36:14 29° 87° (E) 17:40:38 436.750
HORYU 2 28 Apr 17:35:12 17:38:24 18° 270° (W) 17:41:30 437.375
KKS-1 28 Apr 17:46:49 17:50:33 26° 296° (WNW) 17:54:13 437.445
AO-7 28 Apr 17:48:08 17:55:45 38° 264° (W) 18:03:16 29.400- 29.500
CUTE-I 28 Apr 17:58:41 18:03:15 31° 63° (ENE) 18:07:54 437.470
VERMONT LUNAR 28 Apr 17:59:48 18:02:27 21° 174° (S) 18:05:05 437.305
GONETS M04 28 Apr 18:07:48 18:16:32 66° 285° (WNW) 18:25:22
Cubesat XI-IV 28 Apr 18:09:01 18:13:51 37° 65° (ENE) 18:18:44 437.490
CUSAT 1 28 Apr 18:13:12 18:17:20 81° 282° (WNW) 18:22:59 437.405
ISS 28 Apr 18:15:48 18:18:38 27° 217° (SW) 18:21:26 145.825
PCSat 28 Apr 18:22:23 18:27:23 38° 246° (WSW) 18:32:18 145.827
Cosmos 2499 28 Apr 18:31:04 18:39:08 43° 88° (E) 18:47:00 435.465 / 435.565
STARS 28 Apr 18:34:12 18:36:49 15° 301° (WNW) 18:39:17 437.465
MOZHAYETS 4 28 Apr 18:36:59 18:41:36 84° 285° (WNW) 18:46:10
SO-50 28 Apr 18:37:53 18:41:57 25° 32° (NNE) 18:46:03 436.795
CUBESAT XI-V 28 Apr 18:47:33 18:49:28 13° 85° (E) 18:51:35 437.345
PHONESAT 2.4 28 Apr 19:01:43 19:04:36 23° 174° (S) 19:07:29 2401.200-2431.200
JAS-2 28 Apr 19:07:00 19:10:20 13° 281° (WNW) 19:13:05 435.910
DANDE 28 Apr 19:15:54 19:19:29 29° 298° (WNW) 19:24:04 436.750
PRISM 28 Apr 19:29:07 19:31:45 17° 90° (E) 19:34:28 437.425
